Location: Appleton
(44.2618°N, 88.4157°W)
Time: 11:53:03
(UTC+00:00)

Vanguard 1 - All Passes

Search period start: 07 March 2021 00:00
Search period end: 17 March 2021 00:00
Orbit: 649 x 3834 km, 34.2° (Epoch: 06 March)

Date Brightness Start Highest point End Pass type
(mag) Time Alt. Az. Time Alt. Az. Time Alt. Az.
07 Mar - 07:43:16 10° SSW 07:47:31 19° SSE 07:50:55 10° ESE night (unlit)
07 Mar - 10:03:06 10° WSW 10:06:57 25° S 10:10:36 10° SE visible
07 Mar - 12:23:30 10° SW 12:26:17 16° SSW 12:29:26 10° SSE daylight
08 Mar - 05:45:43 10° S 05:48:11 12° SSE 05:50:20 10° SE night (unlit)
08 Mar - 08:03:31 10° SW 08:08:15 23° S 08:11:57 10° ESE night (unlit)
08 Mar - 10:23:54 10° WSW 10:27:37 23° S 10:31:13 10° SE visible
08 Mar - 12:45:18 10° SW 12:46:58 12° SSW 12:48:47 10° S daylight
09 Mar - 06:04:17 10° SSW 06:09:03 16° SSE 06:12:42 10° SE night (unlit)
09 Mar - 08:24:02 10° SW 08:28:58 26° S 08:32:49 10° ESE visible
09 Mar - 10:44:49 10° WSW 10:48:16 21° SSW 10:51:41 10° SE visible
10 Mar - 06:23:58 10° SSW 06:29:52 21° SSE 06:34:08 10° ESE night (unlit)
10 Mar - 08:44:44 10° WSW 08:49:41 27° S 08:53:33 10° ESE visible
10 Mar - 11:05:55 10° WSW 11:08:54 17° SSW 11:11:53 10° SSE visible
11 Mar - 04:25:50 10° S 04:30:01 13° SSE 04:33:28 10° SE night (unlit)
11 Mar - 06:44:09 10° SW 06:50:41 25° S 06:55:12 10° ESE night (unlit)
11 Mar - 09:05:34 10° WSW 09:10:22 27° S 09:14:11 10° SE visible
11 Mar - 11:27:24 10° SW 11:29:31 13° SSW 11:31:39 10° S visible
12 Mar - 04:44:15 10° SSW 04:50:57 18° SSE 04:55:50 10° ESE night (unlit)
12 Mar - 07:04:39 10° SW 07:11:29 29° S 07:16:06 10° ESE night (unlit)
12 Mar - 09:26:30 10° WSW 09:31:01 25° SSW 09:34:42 10° SE visible
13 Mar - 05:03:45 10° SSW 05:11:52 23° SSE 05:17:21 10° ESE night (unlit)
13 Mar - 07:25:21 10° WSW 07:32:14 32° S 07:36:51 10° ESE night (unlit)
13 Mar - 09:47:33 10° WSW 09:51:37 22° SSW 09:55:05 10° SE visible
14 Mar - 03:05:34 10° S 03:11:22 14° SSE 03:16:02 10° SE visible
14 Mar - 05:23:47 10° SW 05:32:46 28° SSE 05:38:29 10° ESE night (unlit)
14 Mar - 07:46:13 10° WSW 07:52:58 33° S 07:57:32 10° ESE night (unlit)
14 Mar - 10:08:46 10° WSW 10:12:11 18° SSW 10:15:12 10° SSE visible
15 Mar - 03:23:35 10° SSW 03:32:22 19° SSE 03:38:39 10° ESE visible
15 Mar - 05:44:12 10° SW 05:53:38 33° S 05:59:26 10° ESE night (unlit)
15 Mar - 08:07:11 10° WSW 08:13:40 32° S 08:18:07 10° SE night (unlit)
15 Mar - 10:30:25 10° SW 10:32:42 13° SSW 10:34:49 10° S visible
16 Mar - 03:42:46 10° SSW 03:53:21 24° SSE 04:00:19 10° ESE visible
16 Mar - 06:04:54 10° WSW 06:14:28 36° S 06:20:15 10° ESE night (unlit)
16 Mar - 08:28:14 10° WSW 08:34:19 30° SSW 08:38:36 10° SE visible
